owner,sensor,date,latitude,longitude,vertical_datum,sea_water_practical_salinity,qcFlag 
ENP,ioos.station.NOAA.NDBC:LBRF1:1,2012-04-05T22:00:00Z,25.4840,-81.1330,1.5,32.6,11111222 
ENP,ioos.station.NOAA.NDBC:LBRF1:1,2012-04-07T04:00:00Z,25.4840,-81.1330,1.5,32.2,11111222 
ENP,ioos.station.NOAA.NDBC:LBRF1:1,2012-04-07T05:00:00Z,25.4840,-81.1330,1.5,32.3,11111222 
ENP,ioos.station.NOAA.NDBC:LBRF1:1,2012-04-09T04:00:00Z,25.4840,-81.1330,1.5,27.0,11111222 
ENP,ioos.station.NOAA.NDBC:LBRF1:1,2012-04-09T05:00:00Z,25.4840,-81.1330,1.5,26.3,11111222 
ENP,ioos.station.NOAA.NDBC:LBRF1:1,2012-04-11T04:00:00Z,25.4840,-81.1330,1.5,32.1,11111222 
ENP,ioos.station.NOAA.NDBC:LBRF1:1,2012-04-11T05:00:00Z,25.4840,-81.1330,1.5,31.6,11111222 
ENP,ioos.station.NOAA.NDBC:LBRF1:1,2012-04-11T14:00:00Z,25.4840,-81.1330,1.5,33.3,11111222 
ENP,ioos.station.NOAA.NDBC:LBRF1:1,2012-04-11T15:00:00Z,25.4840,-81.1330,1.5,33.0,11111222 
ENP,ioos.station.NOAA.NDBC:LBRF1:1,2012-04-11T16:00:00Z,25.4840,-81.1330,1.5,31.9,11111222 
ENP,ioos.station.NOAA.NDBC:LBRF1:1,2012-04-11T17:00:00Z,25.4840,-81.1330,1.5,31.3,11111222 
ENP,ioos.station.NOAA.NDBC:LBRF1:1,2012-04-11T18:00:00Z,25.4840,-81.1330,1.5,30.9,11111222 
ENP,ioos.station.NOAA.NDBC:LBRF1:1,2012-04-11T19:00:00Z,25.4840,-81.1330,1.5,31.6,11111222 
ENP,ioos.station.NOAA.NDBC:LBRF1:1,2012-04-11T20:00:00Z,25.4840,-81.1330,1.5,33.0,11111222 
ENP,ioos.station.NOAA.NDBC:LBRF1:1,2012-04-11T21:00:00Z,25.4840,-81.1330,1.5,33.5,11111222 
ENP,ioos.station.NOAA.NDBC:LBRF1:1,2012-04-16T17:00:00Z,25.4840,-81.1330,1.5,29.6,11111222 
ENP,ioos.station.NOAA.NDBC:LBRF1:1,2012-04-16T18:00:00Z,25.4840,-81.1330,1.5,30.1,11111222 
ENP,ioos.station.NOAA.NDBC:LBRF1:1,2012-04-16T19:00:00Z,25.4840,-81.1330,1.5,30.4,11111222 
ENP,ioos.station.NOAA.NDBC:LBRF1:1,2012-04-16T20:00:00Z,25.4840,-81.1330,1.5,29.8,11111222 
ENP,ioos.station.NOAA.NDBC:LBRF1:1,2012-04-16T21:00:00Z,25.4840,-81.1330,1.5,28.1,11111222 
ENP,ioos.station.NOAA.NDBC:LBRF1:1,2012-04-16T22:00:00Z,25.4840,-81.1330,1.5,25.9,11111222 
ENP,ioos.station.NOAA.NDBC:LBRF1:1,2012-04-16T23:00:00Z,25.4840,-81.1330,1.5,24.7,11111222 
ENP,ioos.station.NOAA.NDBC:LBRF1:1,2012-04-17T00:00:00Z,25.4840,-81.1330,1.5,24.2,11111222 
ENP,ioos.station.NOAA.NDBC:LBRF1:1,2012-04-17T01:00:00Z,25.4840,-81.1330,1.5,24.0,11111222 
ENP,ioos.station.NOAA.NDBC:LBRF1:1,2012-04-17T02:00:00Z,25.4840,-81.1330,1.5,24.1,11111222 
ENP,ioos.station.NOAA.NDBC:LBRF1:1,2012-04-17T03:00:00Z,25.4840,-81.1330,1.5,25.5,11111222 
ENP,ioos.station.NOAA.NDBC:LBRF1:1,2012-04-17T04:00:00Z,25.4840,-81.1330,1.5,27.6,11111222 
ENP,ioos.station.NOAA.NDBC:LBRF1:1,2012-04-17T05:00:00Z,25.4840,-81.1330,1.5,29.1,11111222 
ENP,ioos.station.NOAA.NDBC:LBRF1:1,2012-04-17T06:00:00Z,25.4840,-81.1330,1.5,29.6,11111222 
ENP,ioos.station.NOAA.NDBC:LBRF1:1,2012-04-17T07:00:00Z,25.4840,-81.1330,1.5,29.6,11111222 
ENP,ioos.station.NOAA.NDBC:LBRF1:1,2012-04-17T08:00:00Z,25.4840,-81.1330,1.5,28.6,11111222 
ENP,ioos.station.NOAA.NDBC:LBRF1:1,2012-04-17T09:00:00Z,25.4840,-81.1330,1.5,26.5,11111222 
ENP,ioos.station.NOAA.NDBC:LBRF1:1,2012-04-17T10:00:00Z,25.4840,-81.1330,1.5,24.7,11111222 
ENP,ioos.station.NOAA.NDBC:LBRF1:1,2012-04-17T11:00:00Z,25.4840,-81.1330,1.5,24.0,11111222 
ENP,ioos.station.NOAA.NDBC:LBRF1:1,2012-04-17T12:00:00Z,25.4840,-81.1330,1.5,23.6,11111222 
ENP,ioos.station.NOAA.NDBC:LBRF1:1,2012-04-17T13:00:00Z,25.4840,-81.1330,1.5,23.4,11111222 
ENP,ioos.station.NOAA.NDBC:LBRF1:1,2012-04-17T14:00:00Z,25.4840,-81.1330,1.5,23.5,11111222 
ENP,ioos.station.NOAA.NDBC:LBRF1:1,2012-04-17T15:00:00Z,25.4840,-81.1330,1.5,24.0,11111222 
ENP,ioos.station.NOAA.NDBC:LBRF1:1,2012-04-17T16:00:00Z,25.4840,-81.1330,1.5,27.2,11111222 
ENP,ioos.station.NOAA.NDBC:LBRF1:1,2012-04-17T17:00:00Z,25.4840,-81.1330,1.5,29.7,11111222 
ENP,ioos.station.NOAA.NDBC:LBRF1:1,2012-04-17T18:00:00Z,25.4840,-81.1330,1.5,30.4,11111222 
ENP,ioos.station.NOAA.NDBC:LBRF1:1,2012-04-17T19:00:00Z,25.4840,-81.1330,1.5,30.8,11111222 
ENP,ioos.station.NOAA.NDBC:LBRF1:1,2012-04-17T20:00:00Z,25.4840,-81.1330,1.5,30.4,11111222 
ENP,ioos.station.NOAA.NDBC:LBRF1:1,2012-04-17T21:00:00Z,25.4840,-81.1330,1.5,29.8,11111222 
ENP,ioos.station.NOAA.NDBC:LBRF1:1,2012-04-17T22:00:00Z,25.4840,-81.1330,1.5,28.4,11111222 
ENP,ioos.station.NOAA.NDBC:LBRF1:1,2012-04-17T23:00:00Z,25.4840,-81.1330,1.5,25.7,11111222 
ENP,ioos.station.NOAA.NDBC:LBRF1:1,2012-04-18T00:00:00Z,25.4840,-81.1330,1.5,24.2,11111222 
ENP,ioos.station.NOAA.NDBC:LBRF1:1,2012-04-18T01:00:00Z,25.4840,-81.1330,1.5,23.8,11111222 
ENP,ioos.station.NOAA.NDBC:LBRF1:1,2012-04-18T03:00:00Z,25.4840,-81.1330,1.5,24.4,11111222 
ENP,ioos.station.NOAA.NDBC:LBRF1:1,2012-04-18T04:00:00Z,25.4840,-81.1330,1.5,27.9,11111222 
ENP,ioos.station.NOAA.NDBC:LBRF1:1,2012-04-18T06:00:00Z,25.4840,-81.1330,1.5,30.9,11111222 
ENP,ioos.station.NOAA.NDBC:LBRF1:1,2012-04-18T07:00:00Z,25.4840,-81.1330,1.5,31.1,11111222 
ENP,ioos.station.NOAA.NDBC:LBRF1:1,2012-04-18T08:00:00Z,25.4840,-81.1330,1.5,31.1,11111222 
ENP,ioos.station.NOAA.NDBC:LBRF1:1,2012-04-18T09:00:00Z,25.4840,-81.1330,1.5,30.9,11111222 
ENP,ioos.station.NOAA.NDBC:LBRF1:1,2012-04-18T11:00:00Z,25.4840,-81.1330,1.5,29.0,11111222 
ENP,ioos.station.NOAA.NDBC:LBRF1:1,2012-04-18T12:00:00Z,25.4840,-81.1330,1.5,26.6,11111222 
ENP,ioos.station.NOAA.NDBC:LBRF1:1,2012-04-18T13:00:00Z,25.4840,-81.1330,1.5,25.1,11111222 
ENP,ioos.station.NOAA.NDBC:LBRF1:1,2012-04-18T14:00:00Z,25.4840,-81.1330,1.5,26.3,11111222 
ENP,ioos.station.NOAA.NDBC:LBRF1:1,2012-04-18T15:00:00Z,25.4840,-81.1330,1.5,28.6,11111222 
ENP,ioos.station.NOAA.NDBC:LBRF1:1,2012-04-18T16:00:00Z,25.4840,-81.1330,1.5,30.4,11111222 
ENP,ioos.station.NOAA.NDBC:LBRF1:1,2012-04-18T17:00:00Z,25.4840,-81.1330,1.5,31.4,11111222 
ENP,ioos.station.NOAA.NDBC:LBRF1:1,2012-04-18T18:00:00Z,25.4840,-81.1330,1.5,32.0,11111222 
ENP,ioos.station.NOAA.NDBC:LBRF1:1,2012-04-18T19:00:00Z,25.4840,-81.1330,1.5,32.5,11111222 
ENP,ioos.station.NOAA.NDBC:LBRF1:1,2012-04-18T20:00:00Z,25.4840,-81.1330,1.5,32.5,11111222 
ENP,ioos.station.NOAA.NDBC:LBRF1:1,2012-04-18T21:00:00Z,25.4840,-81.1330,1.5,32.5,11111222 
ENP,ioos.station.NOAA.NDBC:LBRF1:1,2012-04-18T22:00:00Z,25.4840,-81.1330,1.5,32.0,11111222 
ENP,ioos.station.NOAA.NDBC:LBRF1:1,2012-04-18T23:00:00Z,25.4840,-81.1330,1.5,31.4,11111222 
ENP,ioos.station.NOAA.NDBC:LBRF1:1,2012-04-19T00:00:00Z,25.4840,-81.1330,1.5,30.9,11111222 
ENP,ioos.station.NOAA.NDBC:LBRF1:1,2012-04-19T01:00:00Z,25.4840,-81.1330,1.5,29.3,11111222 
ENP,ioos.station.NOAA.NDBC:LBRF1:1,2012-04-19T02:00:00Z,25.4840,-81.1330,1.5,28.5,11111222 
ENP,ioos.station.NOAA.NDBC:LBRF1:1,2012-04-19T03:00:00Z,25.4840,-81.1330,1.5,29.4,11111222 
ENP,ioos.station.NOAA.NDBC:LBRF1:1,2012-04-19T04:00:00Z,25.4840,-81.1330,1.5,31.0,11111222 
ENP,ioos.station.NOAA.NDBC:LBRF1:1,2012-04-19T06:00:00Z,25.4840,-81.1330,1.5,32.3,11111222 
ENP,ioos.station.NOAA.NDBC:LBRF1:1,2012-04-19T10:00:00Z,25.4840,-81.1330,1.5,32.5,11111222 
ENP,ioos.station.NOAA.NDBC:LBRF1:1,2012-04-19T13:00:00Z,25.4840,-81.1330,1.5,30.9,11111222 
ENP,ioos.station.NOAA.NDBC:LBRF1:1,2012-04-19T14:00:00Z,25.4840,-81.1330,1.5,30.4,11111222 
ENP,ioos.station.NOAA.NDBC:LBRF1:1,2012-04-19T15:00:00Z,25.4840,-81.1330,1.5,31.3,11111222 
ENP,ioos.station.NOAA.NDBC:LBRF1:1,2012-04-19T17:00:00Z,25.4840,-81.1330,1.5,32.6,11111222 
ENP,ioos.station.NOAA.NDBC:LBRF1:1,2012-04-19T18:00:00Z,25.4840,-81.1330,1.5,32.9,11111222 
ENP,ioos.station.NOAA.NDBC:LBRF1:1,2012-04-19T19:00:00Z,25.4840,-81.1330,1.5,33.0,11111222 
ENP,ioos.station.NOAA.NDBC:LBRF1:1,2012-04-19T20:00:00Z,25.4840,-81.1330,1.5,33.0,11111222 
ENP,ioos.station.NOAA.NDBC:LBRF1:1,2012-04-19T21:00:00Z,25.4840,-81.1330,1.5,33.0,11111222 
ENP,ioos.station.NOAA.NDBC:LBRF1:1,2012-04-19T22:00:00Z,25.4840,-81.1330,1.5,33.0,11111222 
ENP,ioos.station.NOAA.NDBC:LBRF1:1,2012-04-19T23:00:00Z,25.4840,-81.1330,1.5,32.6,11111222 
ENP,ioos.station.NOAA.NDBC:LBRF1:1,2012-04-20T00:00:00Z,25.4840,-81.1330,1.5,32.5,11111222 
ENP,ioos.station.NOAA.NDBC:LBRF1:1,2012-04-20T01:00:00Z,25.4840,-81.1330,1.5,31.4,11111222 
ENP,ioos.station.NOAA.NDBC:LBRF1:1,2012-04-20T02:00:00Z,25.4840,-81.1330,1.5,31.0,11111222 
ENP,ioos.station.NOAA.NDBC:LBRF1:1,2012-04-20T03:00:00Z,25.4840,-81.1330,1.5,30.8,11111222 
ENP,ioos.station.NOAA.NDBC:LBRF1:1,2012-04-20T04:00:00Z,25.4840,-81.1330,1.5,31.0,11111222 
ENP,ioos.station.NOAA.NDBC:LBRF1:1,2012-04-20T06:00:00Z,25.4840,-81.1330,1.5,32.6,11111222 
ENP,ioos.station.NOAA.NDBC:LBRF1:1,2012-04-20T07:00:00Z,25.4840,-81.1330,1.5,32.9,11111222 
ENP,ioos.station.NOAA.NDBC:LBRF1:1,2012-04-20T08:00:00Z,25.4840,-81.1330,1.5,32.9,11111222 
ENP,ioos.station.NOAA.NDBC:LBRF1:1,2012-04-20T09:00:00Z,25.4840,-81.1330,1.5,33.0,11111222 
ENP,ioos.station.NOAA.NDBC:LBRF1:1,2012-04-20T10:00:00Z,25.4840,-81.1330,1.5,32.9,11111222 
ENP,ioos.station.NOAA.NDBC:LBRF1:1,2012-04-20T11:00:00Z,25.4840,-81.1330,1.5,32.8,11111222 
ENP,ioos.station.NOAA.NDBC:LBRF1:1,2012-04-20T12:00:00Z,25.4840,-81.1330,1.5,32.5,11111222 
ENP,ioos.station.NOAA.NDBC:LBRF1:1,2012-04-20T13:00:00Z,25.4840,-81.1330,1.5,32.1,11111222 
ENP,ioos.station.NOAA.NDBC:LBRF1:1,2012-04-20T14:00:00Z,25.4840,-81.1330,1.5,31.2,11111222 
ENP,ioos.station.NOAA.NDBC:LBRF1:1,2012-04-20T15:00:00Z,25.4840,-81.1330,1.5,31.4,11111222 
ENP,ioos.station.NOAA.NDBC:LBRF1:1,2012-04-20T17:00:00Z,25.4840,-81.1330,1.5,32.8,11111222 
ENP,ioos.station.NOAA.NDBC:LBRF1:1,2012-04-20T18:00:00Z,25.4840,-81.1330,1.5,33.0,11111222 
ENP,ioos.station.NOAA.NDBC:LBRF1:1,2012-04-20T19:00:00Z,25.4840,-81.1330,1.5,33.2,11111222 
ENP,ioos.station.NOAA.NDBC:LBRF1:1,2012-04-20T20:00:00Z,25.4840,-81.1330,1.5,33.3,11111222 
ENP,ioos.station.NOAA.NDBC:LBRF1:1,2012-04-20T21:00:00Z,25.4840,-81.1330,1.5,33.3,11111222 
ENP,ioos.station.NOAA.NDBC:LBRF1:1,2012-04-20T22:00:00Z,25.4840,-81.1330,1.5,33.3,11111222 
ENP,ioos.station.NOAA.NDBC:LBRF1:1,2012-04-20T23:00:00Z,25.4840,-81.1330,1.5,33.0,11111222 
ENP,ioos.station.NOAA.NDBC:LBRF1:1,2012-04-21T00:00:00Z,25.4840,-81.1330,1.5,32.9,11111222 
ENP,ioos.station.NOAA.NDBC:LBRF1:1,2012-04-21T01:00:00Z,25.4840,-81.1330,1.5,32.3,11111222 
ENP,ioos.station.NOAA.NDBC:LBRF1:1,2012-04-21T02:00:00Z,25.4840,-81.1330,1.5,31.7,11111222 
ENP,ioos.station.NOAA.NDBC:LBRF1:1,2012-04-21T03:00:00Z,25.4840,-81.1330,1.5,31.4,11111222 
ENP,ioos.station.NOAA.NDBC:LBRF1:1,2012-04-21T04:00:00Z,25.4840,-81.1330,1.5,31.4,11111222 
ENP,ioos.station.NOAA.NDBC:LBRF1:1,2012-04-21T06:00:00Z,25.4840,-81.1330,1.5,32.6,11111222 
ENP,ioos.station.NOAA.NDBC:LBRF1:1,2012-04-21T07:00:00Z,25.4840,-81.1330,1.5,33.0,11111222 
ENP,ioos.station.NOAA.NDBC:LBRF1:1,2012-04-21T08:00:00Z,25.4840,-81.1330,1.5,33.1,11111222 
ENP,ioos.station.NOAA.NDBC:LBRF1:1,2012-04-21T09:00:00Z,25.4840,-81.1330,1.5,33.0,11111222 
ENP,ioos.station.NOAA.NDBC:LBRF1:1,2012-04-21T10:00:00Z,25.4840,-81.1330,1.5,33.0,11111222 
ENP,ioos.station.NOAA.NDBC:LBRF1:1,2012-04-21T11:00:00Z,25.4840,-81.1330,1.5,32.7,11111222 
ENP,ioos.station.NOAA.NDBC:LBRF1:1,2012-04-21T12:00:00Z,25.4840,-81.1330,1.5,32.4,11111222 
ENP,ioos.station.NOAA.NDBC:LBRF1:1,2012-04-21T13:00:00Z,25.4840,-81.1330,1.5,31.7,11111222 
ENP,ioos.station.NOAA.NDBC:LBRF1:1,2012-04-21T14:00:00Z,25.4840,-81.1330,1.5,30.7,11111222 
ENP,ioos.station.NOAA.NDBC:LBRF1:1,2012-04-21T15:00:00Z,25.4840,-81.1330,1.5,30.2,11111222 
ENP,ioos.station.NOAA.NDBC:LBRF1:1,2012-04-21T16:00:00Z,25.4840,-81.1330,1.5,30.3,11111222 
ENP,ioos.station.NOAA.NDBC:LBRF1:1,2012-04-21T17:00:00Z,25.4840,-81.1330,1.5,31.3,11111222 
ENP,ioos.station.NOAA.NDBC:LBRF1:1,2012-04-21T18:00:00Z,25.4840,-81.1330,1.5,32.0,11111222 
ENP,ioos.station.NOAA.NDBC:LBRF1:1,2012-04-21T19:00:00Z,25.4840,-81.1330,1.5,32.2,11111222 
ENP,ioos.station.NOAA.NDBC:LBRF1:1,2012-04-21T20:00:00Z,25.4840,-81.1330,1.5,32.2,11111222 
ENP,ioos.station.NOAA.NDBC:LBRF1:1,2012-04-21T21:00:00Z,25.4840,-81.1330,1.5,32.2,11111222 
ENP,ioos.station.NOAA.NDBC:LBRF1:1,2012-04-21T22:00:00Z,25.4840,-81.1330,1.5,32.1,11111222 
ENP,ioos.station.NOAA.NDBC:LBRF1:1,2012-04-21T23:00:00Z,25.4840,-81.1330,1.5,31.6,11111222 
ENP,ioos.station.NOAA.NDBC:LBRF1:1,2012-04-22T00:00:00Z,25.4840,-81.1330,1.5,31.0,11111222 
ENP,ioos.station.NOAA.NDBC:LBRF1:1,2012-04-22T01:00:00Z,25.4840,-81.1330,1.5,29.8,11111222 
ENP,ioos.station.NOAA.NDBC:LBRF1:1,2012-04-22T02:00:00Z,25.4840,-81.1330,1.5,28.1,11111222 
ENP,ioos.station.NOAA.NDBC:LBRF1:1,2012-04-22T03:00:00Z,25.4840,-81.1330,1.5,27.2,11111222 
ENP,ioos.station.NOAA.NDBC:LBRF1:1,2012-04-22T04:00:00Z,25.4840,-81.1330,1.5,26.7,11111222 
ENP,ioos.station.NOAA.NDBC:LBRF1:1,2012-04-22T05:00:00Z,25.4840,-81.1330,1.5,27.1,11111222 
ENP,ioos.station.NOAA.NDBC:LBRF1:1,2012-04-22T06:00:00Z,25.4840,-81.1330,1.5,29.3,11111222 
ENP,ioos.station.NOAA.NDBC:LBRF1:1,2012-04-22T07:00:00Z,25.4840,-81.1330,1.5,31.4,11111222 
ENP,ioos.station.NOAA.NDBC:LBRF1:1,2012-04-22T08:00:00Z,25.4840,-81.1330,1.5,32.0,11111222 
ENP,ioos.station.NOAA.NDBC:LBRF1:1,2012-04-22T09:00:00Z,25.4840,-81.1330,1.5,32.5,11111222 
ENP,ioos.station.NOAA.NDBC:LBRF1:1,2012-04-22T10:00:00Z,25.4840,-81.1330,1.5,32.7,11111222 
ENP,ioos.station.NOAA.NDBC:LBRF1:1,2012-04-22T11:00:00Z,25.4840,-81.1330,1.5,32.6,11111222 
ENP,ioos.station.NOAA.NDBC:LBRF1:1,2012-04-22T12:00:00Z,25.4840,-81.1330,1.5,32.5,11111222 
ENP,ioos.station.NOAA.NDBC:LBRF1:1,2012-04-22T14:00:00Z,25.4840,-81.1330,1.5,32.1,11111222 
ENP,ioos.station.NOAA.NDBC:LBRF1:1,2012-04-22T15:00:00Z,25.4840,-81.1330,1.5,32.0,11111222 
ENP,ioos.station.NOAA.NDBC:LBRF1:1,2012-04-22T16:00:00Z,25.4840,-81.1330,1.5,31.5,11111222 
ENP,ioos.station.NOAA.NDBC:LBRF1:1,2012-04-22T17:00:00Z,25.4840,-81.1330,1.5,32.1,11111222 
ENP,ioos.station.NOAA.NDBC:LBRF1:1,2012-04-22T18:00:00Z,25.4840,-81.1330,1.5,33.9,11111222 
ENP,ioos.station.NOAA.NDBC:LBRF1:1,2012-04-22T19:00:00Z,25.4840,-81.1330,1.5,34.4,11111222 
ENP,ioos.station.NOAA.NDBC:LBRF1:1,2012-04-22T20:00:00Z,25.4840,-81.1330,1.5,34.4,11111222 
ENP,ioos.station.NOAA.NDBC:LBRF1:1,2012-04-22T21:00:00Z,25.4840,-81.1330,1.5,34.4,11111222 
ENP,ioos.station.NOAA.NDBC:LBRF1:1,2012-04-22T22:00:00Z,25.4840,-81.1330,1.5,34.3,11111222 
ENP,ioos.station.NOAA.NDBC:LBRF1:1,2012-04-22T23:00:00Z,25.4840,-81.1330,1.5,34.0,11111222 
ENP,ioos.station.NOAA.NDBC:LBRF1:1,2012-04-23T00:00:00Z,25.4840,-81.1330,1.5,33.9,11111222 
ENP,ioos.station.NOAA.NDBC:LBRF1:1,2012-04-23T01:00:00Z,25.4840,-81.1330,1.5,33.7,11111222 
ENP,ioos.station.NOAA.NDBC:LBRF1:1,2012-04-23T02:00:00Z,25.4840,-81.1330,1.5,33.6,11111222 
ENP,ioos.station.NOAA.NDBC:LBRF1:1,2012-04-23T03:00:00Z,25.4840,-81.1330,1.5,33.2,11111222 
ENP,ioos.station.NOAA.NDBC:LBRF1:1,2012-04-23T04:00:00Z,25.4840,-81.1330,1.5,32.9,11111222 
ENP,ioos.station.NOAA.NDBC:LBRF1:1,2012-04-23T05:00:00Z,25.4840,-81.1330,1.5,32.7,11111222 
ENP,ioos.station.NOAA.NDBC:LBRF1:1,2012-04-23T06:00:00Z,25.4840,-81.1330,1.5,32.7,11111222 
ENP,ioos.station.NOAA.NDBC:LBRF1:1,2012-04-23T07:00:00Z,25.4840,-81.1330,1.5,33.0,11111222 
ENP,ioos.station.NOAA.NDBC:LBRF1:1,2012-04-23T08:00:00Z,25.4840,-81.1330,1.5,33.1,11111222 
ENP,ioos.station.NOAA.NDBC:LBRF1:1,2012-04-23T09:00:00Z,25.4840,-81.1330,1.5,33.2,11111222 
ENP,ioos.station.NOAA.NDBC:LBRF1:1,2012-04-23T10:00:00Z,25.4840,-81.1330,1.5,33.3,11111222 
ENP,ioos.station.NOAA.NDBC:LBRF1:1,2012-04-23T11:00:00Z,25.4840,-81.1330,1.5,33.2,11111222 
ENP,ioos.station.NOAA.NDBC:LBRF1:1,2012-04-23T12:00:00Z,25.4840,-81.1330,1.5,32.8,11111222 
ENP,ioos.station.NOAA.NDBC:LBRF1:1,2012-04-23T13:00:00Z,25.4840,-81.1330,1.5,32.8,11111222 
ENP,ioos.station.NOAA.NDBC:LBRF1:1,2012-04-23T14:00:00Z,25.4840,-81.1330,1.5,32.3,11111222 
ENP,ioos.station.NOAA.NDBC:LBRF1:1,2012-04-23T15:00:00Z,25.4840,-81.1330,1.5,31.8,11111222 
ENP,ioos.station.NOAA.NDBC:LBRF1:1,2012-04-23T16:00:00Z,25.4840,-81.1330,1.5,31.5,11111222 
ENP,ioos.station.NOAA.NDBC:LBRF1:1,2012-04-23T17:00:00Z,25.4840,-81.1330,1.5,31.4,11111222 
ENP,ioos.station.NOAA.NDBC:LBRF1:1,2012-04-23T18:00:00Z,25.4840,-81.1330,1.5,31.7,11111222 
ENP,ioos.station.NOAA.NDBC:LBRF1:1,2012-04-23T19:00:00Z,25.4840,-81.1330,1.5,32.3,11111222 
ENP,ioos.station.NOAA.NDBC:LBRF1:1,2012-04-23T20:00:00Z,25.4840,-81.1330,1.5,32.7,11111222 
ENP,ioos.station.NOAA.NDBC:LBRF1:1,2012-04-23T21:00:00Z,25.4840,-81.1330,1.5,33.0,11111222 
ENP,ioos.station.NOAA.NDBC:LBRF1:1,2012-04-23T22:00:00Z,25.4840,-81.1330,1.5,33.1,11111222 
ENP,ioos.station.NOAA.NDBC:LBRF1:1,2012-04-23T23:00:00Z,25.4840,-81.1330,1.5,33.0,11111222 
ENP,ioos.station.NOAA.NDBC:LBRF1:1,2012-04-24T00:00:00Z,25.4840,-81.1330,1.5,32.3,11111222 
ENP,ioos.station.NOAA.NDBC:LBRF1:1,2012-04-24T01:00:00Z,25.4840,-81.1330,1.5,32.0,11111222 
ENP,ioos.station.NOAA.NDBC:LBRF1:1,2012-04-24T02:00:00Z,25.4840,-81.1330,1.5,31.3,11111222 
ENP,ioos.station.NOAA.NDBC:LBRF1:1,2012-04-24T03:00:00Z,25.4840,-81.1330,1.5,31.0,11111222 
ENP,ioos.station.NOAA.NDBC:LBRF1:1,2012-04-24T04:00:00Z,25.4840,-81.1330,1.5,30.6,11111222 
ENP,ioos.station.NOAA.NDBC:LBRF1:1,2012-04-24T05:00:00Z,25.4840,-81.1330,1.5,30.2,11111222 
ENP,ioos.station.NOAA.NDBC:LBRF1:1,2012-04-24T06:00:00Z,25.4840,-81.1330,1.5,30.0,11111222 
ENP,ioos.station.NOAA.NDBC:LBRF1:1,2012-04-24T07:00:00Z,25.4840,-81.1330,1.5,30.0,11111222 
ENP,ioos.station.NOAA.NDBC:LBRF1:1,2012-04-24T08:00:00Z,25.4840,-81.1330,1.5,30.4,11111222 
ENP,ioos.station.NOAA.NDBC:LBRF1:1,2012-04-24T09:00:00Z,25.4840,-81.1330,1.5,30.7,11111222 
ENP,ioos.station.NOAA.NDBC:LBRF1:1,2012-04-24T10:00:00Z,25.4840,-81.1330,1.5,30.8,11111222 
ENP,ioos.station.NOAA.NDBC:LBRF1:1,2012-04-24T11:00:00Z,25.4840,-81.1330,1.5,30.9,11111222 
ENP,ioos.station.NOAA.NDBC:LBRF1:1,2012-04-24T12:00:00Z,25.4840,-81.1330,1.5,30.8,11111222 
ENP,ioos.station.NOAA.NDBC:LBRF1:1,2012-04-24T13:00:00Z,25.4840,-81.1330,1.5,30.2,11111222 
ENP,ioos.station.NOAA.NDBC:LBRF1:1,2012-04-24T14:00:00Z,25.4840,-81.1330,1.5,29.5,11111222 
ENP,ioos.station.NOAA.NDBC:LBRF1:1,2012-04-24T15:00:00Z,25.4840,-81.1330,1.5,28.8,11111222 
ENP,ioos.station.NOAA.NDBC:LBRF1:1,2012-04-24T16:00:00Z,25.4840,-81.1330,1.5,28.2,11111222 
ENP,ioos.station.NOAA.NDBC:LBRF1:1,2012-04-24T17:00:00Z,25.4840,-81.1330,1.5,27.8,11111222 
ENP,ioos.station.NOAA.NDBC:LBRF1:1,2012-04-24T18:00:00Z,25.4840,-81.1330,1.5,27.8,11111222 
ENP,ioos.station.NOAA.NDBC:LBRF1:1,2012-04-24T19:00:00Z,25.4840,-81.1330,1.5,28.6,11111222 
ENP,ioos.station.NOAA.NDBC:LBRF1:1,2012-04-24T20:00:00Z,25.4840,-81.1330,1.5,29.4,11111222 
ENP,ioos.station.NOAA.NDBC:LBRF1:1,2012-04-24T21:00:00Z,25.4840,-81.1330,1.5,30.2,11111222 
ENP,ioos.station.NOAA.NDBC:LBRF1:1,2012-04-24T22:00:00Z,25.4840,-81.1330,1.5,30.8,11111222 
ENP,ioos.station.NOAA.NDBC:LBRF1:1,2012-04-24T23:00:00Z,25.4840,-81.1330,1.5,31.0,11111222 
ENP,ioos.station.NOAA.NDBC:LBRF1:1,2012-04-25T00:00:00Z,25.4840,-81.1330,1.5,30.2,11111222 
ENP,ioos.station.NOAA.NDBC:LBRF1:1,2012-04-25T01:00:00Z,25.4840,-81.1330,1.5,29.1,11111222 
ENP,ioos.station.NOAA.NDBC:LBRF1:1,2012-04-25T02:00:00Z,25.4840,-81.1330,1.5,28.2,11111222 
ENP,ioos.station.NOAA.NDBC:LBRF1:1,2012-04-25T03:00:00Z,25.4840,-81.1330,1.5,27.3,11111222 
ENP,ioos.station.NOAA.NDBC:LBRF1:1,2012-04-25T04:00:00Z,25.4840,-81.1330,1.5,26.5,11111222 
ENP,ioos.station.NOAA.NDBC:LBRF1:1,2012-04-25T05:00:00Z,25.4840,-81.1330,1.5,26.1,11111222 
ENP,ioos.station.NOAA.NDBC:LBRF1:1,2012-04-25T06:00:00Z,25.4840,-81.1330,1.5,25.9,11111222 
ENP,ioos.station.NOAA.NDBC:LBRF1:1,2012-04-25T07:00:00Z,25.4840,-81.1330,1.5,25.7,11111222 
ENP,ioos.station.NOAA.NDBC:LBRF1:1,2012-04-25T08:00:00Z,25.4840,-81.1330,1.5,25.7,11111222 
ENP,ioos.station.NOAA.NDBC:LBRF1:1,2012-04-25T09:00:00Z,25.4840,-81.1330,1.5,25.9,11111222 
ENP,ioos.station.NOAA.NDBC:LBRF1:1,2012-04-25T10:00:00Z,25.4840,-81.1330,1.5,26.1,11111222 
ENP,ioos.station.NOAA.NDBC:LBRF1:1,2012-04-25T11:00:00Z,25.4840,-81.1330,1.5,26.3,11111222 
ENP,ioos.station.NOAA.NDBC:LBRF1:1,2012-04-25T12:00:00Z,25.4840,-81.1330,1.5,26.3,11111222 
ENP,ioos.station.NOAA.NDBC:LBRF1:1,2012-04-25T13:00:00Z,25.4840,-81.1330,1.5,25.9,11111222 
ENP,ioos.station.NOAA.NDBC:LBRF1:1,2012-04-25T14:00:00Z,25.4840,-81.1330,1.5,25.5,11111222 
ENP,ioos.station.NOAA.NDBC:LBRF1:1,2012-04-25T15:00:00Z,25.4840,-81.1330,1.5,25.4,11111222 
ENP,ioos.station.NOAA.NDBC:LBRF1:1,2012-04-25T16:00:00Z,25.4840,-81.1330,1.5,25.2,11111222 
ENP,ioos.station.NOAA.NDBC:LBRF1:1,2012-04-25T17:00:00Z,25.4840,-81.1330,1.5,25.0,11111222 
ENP,ioos.station.NOAA.NDBC:LBRF1:1,2012-04-25T18:00:00Z,25.4840,-81.1330,1.5,25.0,11111222 
ENP,ioos.station.NOAA.NDBC:LBRF1:1,2012-04-25T19:00:00Z,25.4840,-81.1330,1.5,25.2,11111222 
ENP,ioos.station.NOAA.NDBC:LBRF1:1,2012-04-25T20:00:00Z,25.4840,-81.1330,1.5,25.6,11111222 
ENP,ioos.station.NOAA.NDBC:LBRF1:1,2012-04-25T21:00:00Z,25.4840,-81.1330,1.5,27.5,11111222 
ENP,ioos.station.NOAA.NDBC:LBRF1:1,2012-04-25T22:00:00Z,25.4840,-81.1330,1.5,28.7,11111222 
ENP,ioos.station.NOAA.NDBC:LBRF1:1,2012-04-25T23:00:00Z,25.4840,-81.1330,1.5,29.3,11111222 
ENP,ioos.station.NOAA.NDBC:LBRF1:1,2012-04-26T00:00:00Z,25.4840,-81.1330,1.5,28.3,11111222 
ENP,ioos.station.NOAA.NDBC:LBRF1:1,2012-04-26T01:00:00Z,25.4840,-81.1330,1.5,26.3,11111222 
ENP,ioos.station.NOAA.NDBC:LBRF1:1,2012-04-26T02:00:00Z,25.4840,-81.1330,1.5,25.5,11111222 
ENP,ioos.station.NOAA.NDBC:LBRF1:1,2012-04-26T03:00:00Z,25.4840,-81.1330,1.5,25.2,11111222 
ENP,ioos.station.NOAA.NDBC:LBRF1:1,2012-04-26T04:00:00Z,25.4840,-81.1330,1.5,24.7,11111222 
ENP,ioos.station.NOAA.NDBC:LBRF1:1,2012-04-26T05:00:00Z,25.4840,-81.1330,1.5,24.2,11111222 
ENP,ioos.station.NOAA.NDBC:LBRF1:1,2012-04-26T06:00:00Z,25.4840,-81.1330,1.5,23.7,11111222 
ENP,ioos.station.NOAA.NDBC:LBRF1:1,2012-04-26T12:00:00Z,25.4840,-81.1330,1.5,25.2,11111222 
ENP,ioos.station.NOAA.NDBC:LBRF1:1,2012-04-26T13:00:00Z,25.4840,-81.1330,1.5,25.1,11111222 
ENP,ioos.station.NOAA.NDBC:LBRF1:1,2012-04-26T14:00:00Z,25.4840,-81.1330,1.5,24.5,11111222 
ENP,ioos.station.NOAA.NDBC:LBRF1:1,2012-04-26T15:00:00Z,25.4840,-81.1330,1.5,23.7,11111222 
ENP,ioos.station.NOAA.NDBC:LBRF1:1,2012-04-26T16:00:00Z,25.4840,-81.1330,1.5,22.9,11111222 
ENP,ioos.station.NOAA.NDBC:LBRF1:1,2012-04-26T17:00:00Z,25.4840,-81.1330,1.5,22.3,11111222 
ENP,ioos.station.NOAA.NDBC:LBRF1:1,2012-04-26T18:00:00Z,25.4840,-81.1330,1.5,22.2,11111222 
ENP,ioos.station.NOAA.NDBC:LBRF1:1,2012-04-26T19:00:00Z,25.4840,-81.1330,1.5,23.0,11111222 
ENP,ioos.station.NOAA.NDBC:LBRF1:1,2012-04-26T20:00:00Z,25.4840,-81.1330,1.5,24.3,11111222 
ENP,ioos.station.NOAA.NDBC:LBRF1:1,2012-04-26T21:00:00Z,25.4840,-81.1330,1.5,26.5,11111222 
ENP,ioos.station.NOAA.NDBC:LBRF1:1,2012-04-26T22:00:00Z,25.4840,-81.1330,1.5,28.1,11111222 
ENP,ioos.station.NOAA.NDBC:LBRF1:1,2012-04-26T23:00:00Z,25.4840,-81.1330,1.5,28.6,11111222 
ENP,ioos.station.NOAA.NDBC:LBRF1:1,2012-04-27T00:00:00Z,25.4840,-81.1330,1.5,28.7,11111222 
ENP,ioos.station.NOAA.NDBC:LBRF1:1,2012-04-27T01:00:00Z,25.4840,-81.1330,1.5,27.9,11111222 
ENP,ioos.station.NOAA.NDBC:LBRF1:1,2012-04-27T02:00:00Z,25.4840,-81.1330,1.5,25.9,11111222 
ENP,ioos.station.NOAA.NDBC:LBRF1:1,2012-04-27T03:00:00Z,25.4840,-81.1330,1.5,24.4,11111222 
ENP,ioos.station.NOAA.NDBC:LBRF1:1,2012-04-27T04:00:00Z,25.4840,-81.1330,1.5,23.3,11111222 
ENP,ioos.station.NOAA.NDBC:LBRF1:1,2012-04-27T05:00:00Z,25.4840,-81.1330,1.5,22.0,11111222 
ENP,ioos.station.NOAA.NDBC:LBRF1:1,2012-04-27T06:00:00Z,25.4840,-81.1330,1.5,20.9,11111222 
ENP,ioos.station.NOAA.NDBC:LBRF1:1,2012-04-27T07:00:00Z,25.4840,-81.1330,1.5,20.0,11111222 
ENP,ioos.station.NOAA.NDBC:LBRF1:1,2012-04-27T08:00:00Z,25.4840,-81.1330,1.5,19.7,11111222 
ENP,ioos.station.NOAA.NDBC:LBRF1:1,2012-04-27T09:00:00Z,25.4840,-81.1330,1.5,19.7,11111222 
ENP,ioos.station.NOAA.NDBC:LBRF1:1,2012-04-27T10:00:00Z,25.4840,-81.1330,1.5,21.0,11111222 
ENP,ioos.station.NOAA.NDBC:LBRF1:1,2012-04-27T11:00:00Z,25.4840,-81.1330,1.5,22.4,11111222 
ENP,ioos.station.NOAA.NDBC:LBRF1:1,2012-04-27T12:00:00Z,25.4840,-81.1330,1.5,23.5,11111222 
ENP,ioos.station.NOAA.NDBC:LBRF1:1,2012-04-27T13:00:00Z,25.4840,-81.1330,1.5,24.0,11111222 
ENP,ioos.station.NOAA.NDBC:LBRF1:1,2012-04-27T14:00:00Z,25.4840,-81.1330,1.5,23.3,11111222 
ENP,ioos.station.NOAA.NDBC:LBRF1:1,2012-04-27T15:00:00Z,25.4840,-81.1330,1.5,22.1,11111222 